Wenatchee, WA
on Saturday, December 22, 2012

Saturday
Previous Day Next Day
Daily Summary
 ActualAverageRecord
Temperature
Mean Temperature °F 25°F  
Max Temperature 36°F 30°F 48°F (1978)
Min Temperature 30°F 19°F -9°F (1983)
Degree Days
Heating Degree Days 32 40  
Month to date heating degree days 678 857  
Since 1 July heating degree days 1837 2739  
Cooling Degree Days 0 0  
Month to date cooling degree days 0 0  
Year to date cooling degree days 888 249  
Moisture
Dew Point 30°F   
Average Humidity 91    
Maximum Humidity 100    
Minimum Humidity 82    
Precipitation
Precipitation 0.25 in 0.08 in 0.60 in (1964)
Month to date precipitation 1.29 1.81  
Year to date precipitation 8.80 16.36  
Snow
Snow 0.00 in 0.60 in in ()
Month to date snowfall 11.3  
Since 1 July snowfall 19.2  
Snow Depth in   
Wind
Wind Speed 1 mph   
Max Wind Speed 8 mph   
Max Gust Speed 16 mph   
Visibility 3 miles   
Events Fog , Snow   

Key: T is trace of precipitation, MM is missing value
Source: NWS Daily Summary
Time(PST)TemperatureDew PointHumidity Pressure Visibility Wind DirectionWind SpeedGust SpeedPrecipitationEvents Conditions
12:11 AM 30.2°F 28.4°F 93% 29.75 in 2.0 miles Calm Calm - 0.00 in Snow Light Snow
12:14 AM 30.2°F 28.4°F 93% 29.75 in 1.8 miles NNE 3.5 mph - 0.00 in Snow Light Snow
12:27 AM 30.2°F 28.4°F 93% 29.75 in 1.8 miles Calm Calm - 0.01 in Snow Light Snow
12:47 AM 30.2°F 28.4°F 93% 29.75 in 1.8 miles WSW 3.5 mph - 0.02 in Snow Light Snow
12:53 AM 30.2°F 28.4°F 93% 29.75 in 2.0 miles Calm Calm - 0.02 in Snow Light Snow
12:55 AM 30.0°F 28.0°F 92% 29.79 in 2.5 miles Calm Calm - 0.02 in Snow Light Snow
1:31 AM 30.2°F 28.4°F 93% 29.73 in 3.0 miles Calm Calm - 0.00 in   Overcast
1:40 AM 30.2°F 28.4°F 93% 29.74 in 4.0 miles Calm Calm - 0.00 in   Overcast
1:47 AM 30.2°F 28.4°F 93% 29.74 in 4.0 miles Calm Calm - 0.00 in   Overcast
1:55 AM 30.9°F 28.9°F 92% 29.78 in 4.0 miles Calm Calm - 0.00 in   Overcast
2:32 AM 30.2°F 28.4°F 93% 29.74 in 4.0 miles Calm Calm - N/A   Overcast
2:55 AM 30.9°F 28.9°F 92% 29.78 in 5.0 miles Calm Calm - N/A   Overcast
3:18 AM 30.2°F 28.4°F 93% 29.74 in 5.0 miles NNW 3.5 mph - N/A   Overcast
3:27 AM 30.2°F 28.4°F 93% 29.73 in 6.0 miles NW 4.6 mph - N/A   Overcast
3:53 AM 30.2°F 30.2°F 100% 29.72 in 2.5 miles WNW 3.5 mph - N/A   Overcast
3:55 AM 30.9°F 30.0°F 96% 29.75 in 3.0 miles West 3.5 mph - N/A   Overcast
4:09 AM 30.2°F 30.2°F 100% 29.71 in 1.8 miles Calm Calm - N/A   Overcast
4:21 AM 30.2°F 30.2°F 100% 29.71 in 0.5 miles Calm Calm - N/A Fog Light Freezing Fog
4:28 AM 30.2°F 30.2°F 100% 29.71 in 0.2 miles Calm Calm - N/A Fog Light Freezing Fog
4:35 AM 30.2°F 30.2°F 100% 29.70 in 0.8 miles NNW 3.5 mph - N/A   Mist
4:39 AM 30.2°F 28.4°F 93% 29.70 in 1.0 miles NNW 4.6 mph - N/A   Overcast
4:48 AM 30.2°F 28.4°F 93% 29.69 in 2.5 miles NNW 3.5 mph - N/A   Overcast
4:55 AM 30.9°F 30.0°F 96% 29.72 in 3.0 miles NW 3.5 mph - N/A   Overcast
5:19 AM 30.2°F 30.2°F 100% 29.68 in 6.0 miles Calm Calm - N/A   Overcast
5:48 AM 30.2°F 28.4°F 93% 29.67 in 6.0 miles Calm Calm - 0.00 in Snow Light Snow
5:55 AM 30.9°F 28.9°F 92% 29.70 in 3.0 miles Calm Calm - 0.00 in Snow Light Snow
6:02 AM 30.2°F 28.4°F 93% 29.67 in 1.8 miles Calm Calm - 0.00 in Snow Light Snow
6:18 AM 30.2°F 28.4°F 93% 29.66 in 1.5 miles Calm Calm - 0.01 in Snow Light Snow
6:31 AM 30.2°F 30.2°F 100% 29.65 in 1.5 miles Calm Calm - 0.02 in Snow Light Snow
6:55 AM 30.9°F 28.9°F 92% 29.68 in 1.2 miles NE 3.5 mph - 0.04 in Snow Light Snow
7:05 AM 30.2°F 30.2°F 100% 29.64 in 1.2 miles ENE 3.5 mph - 0.01 in Snow Light Snow
7:10 AM 30.2°F 30.2°F 100% 29.64 in 1.0 miles Calm Calm - 0.02 in Snow Light Snow
7:26 AM 32.0°F 30.2°F 93% 29.64 in 0.8 miles Calm Calm - 0.05 in Snow Light Snow
7:43 AM 32.0°F 30.2°F 93% 29.63 in 1.0 miles Calm Calm - 0.07 in Snow Light Snow
7:55 AM 32.0°F 30.0°F 92% 29.65 in 1.0 miles Calm Calm - 0.08 in Snow Light Snow
8:04 AM 30.2°F 28.4°F 93% 29.62 in 0.5 miles SW 3.5 mph - 0.02 in Fog , Snow Snow
8:42 AM 30.2°F 30.2°F 100% 29.61 in 0.5 miles Calm Calm - 0.05 in Fog , Snow Light Snow
8:55 AM 30.9°F 30.0°F 96% 29.65 in 1.0 miles Calm Calm - 0.05 in Snow Light Snow
9:12 AM 30.2°F 28.4°F 93% 29.61 in 2.0 miles WNW 3.5 mph - 0.01 in Snow Light Snow
9:16 AM 30.2°F 28.4°F 93% 29.61 in 1.8 miles NW 3.5 mph - 0.01 in Snow Light Snow
9:55 AM 30.9°F 30.0°F 96% 29.64 in 1.2 miles SW 3.5 mph - 0.03 in Snow Light Snow
10:01 AM 30.2°F 28.4°F 93% 29.61 in 1.2 miles West 3.5 mph - 0.00 in Snow Light Snow
10:10 AM 30.2°F 30.2°F 100% 29.60 in 1.5 miles WNW 3.5 mph - 0.00 in Snow Light Snow
10:16 AM 30.2°F 30.2°F 100% 29.60 in 2.5 miles WNW 3.5 mph - 0.00 in Snow Light Snow
10:26 AM 30.2°F 30.2°F 100% 29.60 in 2.5 miles West 3.5 mph - 0.00 in Snow Light Snow
10:45 AM 32.0°F 30.2°F 93% 29.60 in 1.8 miles Calm Calm - 0.00 in Snow Light Snow
10:55 AM 32.0°F 30.0°F 92% 29.63 in 2.5 miles Calm Calm - 0.01 in Snow Light Snow
10:59 AM 32.0°F 30.2°F 93% 29.59 in 1.8 miles Calm Calm - 0.00 in Snow Light Snow
11:12 AM 32.0°F 30.2°F 93% 29.59 in 1.0 miles Calm Calm - 0.01 in Snow Light Snow
11:37 AM 32.0°F 30.2°F 93% 29.57 in 2.0 miles West 3.5 mph - 0.02 in Snow Light Snow
11:55 AM 32.0°F 30.0°F 92% 29.60 in 4.0 miles Calm Calm - 0.02 in Snow Light Snow
12:55 PM 33.1°F 30.9°F 92% 29.59 in 7.0 miles Calm Calm - 0.00 in   Overcast
1:15 PM 33.8°F 30.2°F 87% 29.56 in 7.0 miles Calm Calm - N/A   Overcast
1:28 PM 32.0°F 30.2°F 93% 29.56 in 2.5 miles WNW 3.5 mph - N/A   Overcast
1:39 PM 32.0°F 30.2°F 93% 29.56 in 1.0 miles WNW 4.6 mph - N/A   Overcast
1:53 PM 32.0°F 30.2°F 93% 29.56 in 3.0 miles Calm Calm - N/A   Overcast
1:55 PM 32.0°F 30.9°F 96% 29.59 in 4.0 miles Calm Calm - N/A   Overcast
2:12 PM 33.8°F 30.2°F 87% 29.55 in 1.8 miles WNW 3.5 mph - N/A   Overcast
2:25 PM 33.8°F 30.2°F 87% 29.56 in 3.0 miles Calm Calm - N/A   Overcast
2:36 PM 33.8°F 30.2°F 87% 29.57 in 3.0 miles SSE 3.5 mph - N/A   Overcast
2:38 PM 32.0°F 30.2°F 93% 29.57 in 1.5 miles Calm Calm - N/A   Overcast
2:43 PM 32.0°F 30.2°F 93% 29.57 in 0.2 miles Calm Calm - N/A Fog Fog
2:55 PM 32.0°F 30.0°F 92% 29.61 in 0.2 miles Calm Calm - N/A Fog Fog
3:05 PM 32.0°F 30.2°F 93% 29.58 in 0.5 miles Calm Calm - N/A Fog Fog
3:11 PM 32.0°F 30.2°F 93% 29.58 in 1.0 miles Calm Calm - N/A   Overcast
3:26 PM 30.2°F 30.2°F 100% 29.59 in 0.5 miles Calm Calm - N/A Fog Light Freezing Fog
3:35 PM 32.0°F 30.2°F 93% 29.60 in 2.0 miles Calm Calm - N/A   Mostly Cloudy
3:42 PM 32.0°F 30.2°F 93% 29.60 in 6.0 miles Calm Calm - N/A   Mostly Cloudy
3:55 PM 33.1°F 30.9°F 92% 29.64 in 10.0 miles SE 3.5 mph - N/A   Overcast
4:55 PM 33.1°F 30.9°F 92% 29.68 in 6.0 miles Calm Calm - N/A   Overcast
5:55 PM 33.1°F 30.9°F 92% 29.68 in 7.0 miles Calm Calm - N/A   Overcast
6:55 PM 34.0°F 30.9°F 89% 29.71 in 9.0 miles WNW 4.6 mph - N/A   Overcast
7:55 PM 36.0°F 30.0°F 79% 29.72 in 10.0 miles Calm Calm - N/A   Overcast
8:39 PM 32.0°F 28.4°F 87% 29.71 in 10.0 miles NNW 4.6 mph - N/A   Scattered Clouds
8:55 PM 30.0°F 27.0°F 88% 29.75 in 10.0 miles NNW 4.6 mph - N/A   Clear
9:26 PM 30.2°F 26.6°F 86% 29.73 in 10.0 miles NNE 4.6 mph - N/A   Mostly Cloudy
9:55 PM 32.0°F 28.0°F 85% 29.78 in 10.0 miles NNW 3.5 mph - N/A   Overcast
10:55 PM 33.1°F 28.9°F 85% 29.79 in 10.0 miles NW 3.5 mph - N/A   Overcast
11:55 PM 33.1°F 28.9°F 85% 29.81 in 10.0 miles Calm Calm - N/A   Overcast
Moon Phase
Dec. 22 Dec. 28 Jan. 04 Jan. 11 Jan. 18
Sunrise:07:46 AM (PST) Moon Rise:12:45 PM (PST)12/22
Sunset:04:13 PM (PST) Moon Set:02:23 AM (PST)12/22

Copyright © 2014 The Weather Underground, Inc.